Regional Weather Roundup
Issued by NWS

Home | Current Version | Previous Version | Text Only | Print | Product List | Glossary On
Versions: 1 2 3 4 5 6 7 8 9 10 11 12 13 14 15 16 17 18 19 20 21 22 23 24 25 26 27 28 29 30 31 32 33 34 35 36 37 38 39 40 41 42 43 44 45 46 47 48 49 50
146
ASUS44 KFWD 050815
RWRTX
NORTH TEXAS HOURLY WEATHER ROUNDUP
NATIONAL WEATHER SERVICE FORT WORTH TX
300 AM CDT THU MAY 05 2016

NOTE: "FAIR" INDICATES FEW OR NO CLOUDS BELOW 12,000 FEET WITH NO
SIGNIFICANT WEATHER AND/OR OBSTRUCTIONS TO VISIBILITY.

TXZ118-119-050900-
DALLAS/FORT WORTH METROPLEX

CITY           SKY/WX    TMP DP  RH WIND       PRES   REMARKS
DFW AIRPORT    CLEAR     63  51  65 N9        30.01R
DALLAS LOVE    CLEAR     63  54  72 N5        30.01S
FTW MEACHAM    CLEAR     63  50  62 N6        30.01S
DAL-EXECUTIVE  CLEAR     61  52  72 N5        30.00S
FTW-ALLIANCE   CLEAR     56  52  86 CALM      30.02S
FTW-NAS-JRB    CLEAR     63  54  72 NW6       30.02S
FTW-SPINKS     CLEAR     54  52  92 CALM      30.03S
ARLINGTON      CLEAR     60  53  77 N3        30.01S
GRAND PRAIRIE  CLEAR     64  51  61 CALM      30.03S
ADDISON        CLEAR     65  51  60 CALM      30.03S
MESQUITE       CLEAR     62  51  68 NW3       30.01S
LANCASTER      CLEAR     61  50  68 N6        30.01S
$$

TXZ091>094-102>105-117-120-121-131>134-050900-
NORTH CENTRAL TEXAS

CITY           SKY/WX    TMP DP  RH WIND       PRES   REMARKS
SHRMAN/DENISON CLEAR     53  45  72 CALM      30.03S
GAINESVILLE    CLEAR     56  46  68 N3        30.05S
BOWIE          CLEAR     54  50  87 CALM      30.04S
BRIDGEPORT     CLEAR     55  53  94 CALM      30.05S
DECATUR        CLEAR     64  45  50 CALM      30.04S
DENTON         CLEAR     57  51  80 NW3       30.02S
MCKINNEY       CLEAR     58  53  84 N3        30.01S
GREENVILLE     CLEAR     55  50  82 CALM      30.00S
ROCKWALL       CLEAR     61  54  75 NW3       30.00R
TERRELL        CLEAR     58  53  84 CALM      30.01R
WAXAHACHIE     CLEAR     63  53  69 N5        30.02S
CLEBURNE       CLEAR     59  55  88 MISG      30.04S
GRANBURY         N/A     55  53  91 SW5       30.04S
$$

TXZ083>090-098>101-113>116-127>130-139>142-154-155-050900-
WESTERN NORTH TEXAS

CITY           SKY/WX    TMP DP  RH WIND       PRES   REMARKS
WICHITA FALLS  CLEAR     59  50  72 N5        30.04S
WF-KICKAPOO    CLEAR     63  50  64 CALM      30.06S
ABILENE        NOT AVBL
ABILENE-DYESS  CLEAR     54  47  76 SW6       30.06F
BRECKENRIDGE   CLEAR     57  51  79 S3        30.05S
GRAHAM         CLEAR     53  52  96 CALM      30.03S
MINERAL WELLS  CLEAR     56  53  90 N3        30.02S
STEPHENVILLE   CLEAR     56  50  82 CALM      30.06F
COMANCHE       CLEAR     62  48  60 SW8       30.06S
BROWNWOOD      CLEAR     52  50  93 CALM      30.08S
COLEMAN        CLEAR     54  48  79 W6        30.08S
$$

TXZ143>147-156>162-174-175-050900-
CENTRAL TEXAS

CITY           SKY/WX    TMP DP  RH WIND       PRES   REMARKS
WACO           CLEAR     57  54  89 SW3       30.01S
WACO-MCGREGOR  CLEAR     56  52  86 CALM      30.01F
HILLSBORO      PTCLDY    58  52  81 CALM      30.01F
CORSICANA      CLEAR     63  53  70 N6        30.01R
MEXIA          PTCLDY    62  52  70 W13       29.99S
HEARNE         CLEAR     55  53  93 CALM      30.01F
CAMERON        CLEAR     61  53  74 W3        30.01S
TEMPLE         CLEAR     58  53  84 CALM      30.03S
KILLEEN        CLEAR     66  47  51 NW6       30.03F
KILLEEN-SKYLRK CLEAR     59  50  72 W6        30.03F
FORT HOOD      CLEAR     62  50  65 W2        30.01F
GATESVILLE     CLEAR     57  52  82 MISG      30.05S
HAMILTON       CLEAR     58  49  74 W9        30.05S
LAMPASAS       CLEAR     55  51  85 W3        30.04F
$$

TXZ095>097-106>112-122>126-135>138-148>153-164>167-050900-
EAST TEXAS

CITY           SKY/WX    TMP DP  RH WIND       PRES   REMARKS
PARIS          CLEAR     55  41  58 N6        30.00S
SULPHUR SPRNGS CLEAR     61  52  72 N5        30.02S
MOUNT PLEASANT CLEAR     58  50  76 CALM      30.00S
GILMER         CLEAR     57  53  86 CALM      29.98S
MINEOLA        CLEAR     57  54  88 CALM      30.00S
TYLER          CLEAR     61  52  72 N5        29.98S
LONGVIEW       CLEAR     57  53  86 CALM      29.97R
MARSHALL       CLEAR     55  51  87 CALM      29.98S
PALESTINE      CLEAR     57  55  93 CALM      30.00R
JACKSONVILLE   CLEAR     65  52  62 N3        30.00S
HENDERSON      CLEAR     60  53  77 N5        29.98S
NACOGDOCHES    CLEAR     55  52  88 N5        29.96S
LUFKIN         CLEAR     58  53  84 NW3       29.96R
$$

SUPPLEMENTAL OBSERVATIONS (CENTRAL)

CITY           SKY/WX    TMP DP  RH WIND       PRES   REMARKS
LAKE TEXOMA      N/A     63  43  48 N2          N/A
CADDO GRASSLND   N/A     50  46  87 CALM        N/A
PAT MAYSE LAKE   N/A     57  46  67 CALM        N/A
GREENVILLE       N/A     57  48  72 N5          N/A
CEDAR HILL       N/A     57  54  88 CALM        N/A
ATHENS           N/A     61  52  72 N1          N/A
MCGREGOR         N/A     55  52  88 SW1         N/A
TEMPLE           N/A     63  50  63 W6          N/A
$$

SUPPLEMENTAL OBSERVATIONS (WEST)

CITY           SKY/WX    TMP DP  RH WIND       PRES   REMARKS
MILLERS CREEK    N/A     55  50  82 SW1G12      N/A
POSSUM KINGDOM   N/A     57  50  77 NW3         N/A
LBJ GRASSLAND    N/A     61  45  55 N2          N/A
GRANBURY         N/A     55  52  88 SW3         N/A
HAMBY            N/A     54  48  82 S1          N/A
IVIE RESERVOIR   N/A     55  52  88 N5          N/A
COLORADO BEND    N/A     61  45  55 W3          N/A
$$

SUPPLEMENTAL OBSERVATIONS (EAST)

CITY           SKY/WX    TMP DP  RH WIND       PRES   REMARKS
CLARKSVILLE      N/A     57  43  58 NW5         N/A
TEXARKANA        N/A     48  45  87 CALM        N/A
LINDEN           N/A     55  45  67 CALM        N/A
CADDO LAKE       N/A     50  46  87 CALM        N/A
GILMER           N/A     55  52  88 CALM        N/A
HENDERSON        N/A     61  54  77 N5          N/A
LUFKIN           N/A     57  55  94 MISG        N/A
S SABINE NF      N/A     61  52  72 W1          N/A
$$

SUPPLEMENTAL OBSERVATIONS ARE A COLLECTION OF AUTOMATED INSTRUMENTS
THAT ARE MAINTAINED BY A VARIETY OF FEDERAL AND STATE AGENCIES.
CERTAIN ELEMENTS...SUCH AS HUMIDITY VALUES AND SUSTAINED WIND
SPEEDS...MAY BE APPROXIMATED.





USA.gov is the U.S. government's official web portal to all federal, state and local government web resources and services.